| time (UTC) | temp C | wind direction | speed KPH | gust KPH | rain 1hr cm | rain 24hr cm | rain mn cm | humidity % | barometer mb |
| 20260906081909 | 19 | 26 | 0.0 | 4.8 | 0.00 | 0.00 | 0.00 | 48 | 1027.7 |
| 20260906080851 | 19 | 52 | 0.0 | 4.8 | 0.00 | 0.00 | 0.00 | 49 | 1027.9 |
| 20260906075846 | 18 | 23 | 0.0 | 4.8 | 0.00 | 0.00 | 0.00 | 52 | 1027.8 |
| 20260906074825 | 17 | 36 | 0.0 | 3.2 | 0.00 | 0.00 | 0.00 | 54 | 1027.7 |
| 20260906072640 | 17 | 25 | 0.0 | 0.0 | 0.00 | 0.00 | 0.00 | 56 | 1027.6 |
| 20260906071615 | 16 | 25 | 0.0 | 0.0 | 0.00 | 0.00 | 0.00 | 57 | 1027.6 |
| 20260906070633 | 16 | 25 | 0.0 | 0.0 | 0.00 | 0.00 | 0.00 | 58 | 1027.7 |
| 20260906065629 | 15 | 25 | 0.0 | 0.0 | 0.00 | 0.00 | 0.00 | 60 | 1027.6 |
| 20260906064636 | 14 | 25 | 0.0 | 0.0 | 0.00 | 0.00 | 0.00 | 61 | 1027.7 |
| 20260906063657 | 13 | 25 | 0.0 | 0.0 | 0.00 | 0.00 | 0.00 | 63 | 1027.6 |
| 20260906062641 | 13 | 25 | 0.0 | 0.0 | 0.00 | 0.00 | 0.00 | 65 | 1027.7 |
| 20260906061645 | 12 | 25 | 0.0 | 0.0 | 0.00 | 0.00 | 0.00 | 66 | 1027.8 |
| 20260906060616 | 12 | 25 | 0.0 | 0.0 | 0.00 | 0.00 | 0.00 | 67 | 1027.8 |
| 20260906054450 | 11 | 25 | 0.0 | 0.0 | 0.00 | 0.00 | 0.00 | 66 | 1027.7 |
| 20260906053505 | 11 | 25 | 0.0 | 0.0 | 0.00 | 0.00 | 0.00 | 67 | 1027.5 |
| 20260906052505 | 11 | 25 | 0.0 | 0.0 | 0.00 | 0.00 | 0.00 | 66 | 1027.7 |
| 20260906051443 | 11 | 25 | 0.0 | 0.0 | 0.00 | 0.00 | 0.00 | 65 | 1027.4 |
| 20260906050417 | 11 | 25 | 0.0 | 0.0 | 0.00 | 0.00 | 0.00 | 65 | 1027.4 |
| 20260906045349 | 11 | 25 | 0.0 | 0.0 | 0.00 | 0.00 | 0.00 | 65 | 1027.5 |
| 20260906044329 | 11 | 25 | 0.0 | 0.0 | 0.00 | 0.00 | 0.00 | 64 | 1027.5 |
| 20260906043327 | 11 | 25 | 0.0 | 0.0 | 0.00 | 0.00 | 0.00 | 64 | 1027.4 |
| 20260906042335 | 11 | 25 | 0.0 | 0.0 | 0.00 | 0.00 | 0.00 | 64 | 1027.4 |
| 20260906041352 | 11 | 25 | 0.0 | 0.0 | 0.00 | 0.00 | 0.00 | 64 | 1027.3 |
| 20260906040330 | 11 | 25 | 0.0 | 0.0 | 0.00 | 0.00 | 0.00 | 64 | 1027.4 |
| 20260906034144 | 11 | 25 | 0.0 | 0.0 | 0.00 | 0.00 | 0.00 | 64 | 1027.2 |
| 20260906033156 | 11 | 25 | 0.0 | 0.0 | 0.00 | 0.00 | 0.00 | 63 | 1027.5 |
| 20260906032130 | 11 | 25 | 0.0 | 0.0 | 0.00 | 0.00 | 0.00 | 63 | 1027.5 |
| 20260906031153 | 11 | 25 | 0.0 | 0.0 | 0.00 | 0.00 | 0.00 | 63 | 1027.6 |
| 20260906030137 | 11 | 25 | 0.0 | 0.0 | 0.00 | 0.00 | 0.00 | 63 | 1027.5 |
| 20260906025144 | 11 | 25 | 0.0 | 0.0 | 0.00 | 0.00 | 0.00 | 62 | 1027.5 |
| 20260906024141 | 11 | 25 | 0.0 | 0.0 | 0.00 | 0.00 | 0.00 | 62 | 1027.5 |
| 20260906023108 | 12 | 25 | 0.0 | 0.0 | 0.00 | 0.00 | 0.00 | 62 | 1027.6 |
| 20260906022043 | 12 | 25 | 0.0 | 0.0 | 0.00 | 0.00 | 0.00 | 62 | 1027.5 |
| 20260906021038 | 12 | 25 | 0.0 | 0.0 | 0.00 | 0.00 | 0.00 | 61 | 1027.5 |
| 20260906014951 | 12 | 25 | 0.0 | 0.0 | 0.00 | 0.00 | 0.00 | 60 | 1027.4 |
| 20260906013917 | 12 | 25 | 0.0 | 0.0 | 0.00 | 0.00 | 0.00 | 60 | 1027.2 |
| 20260906012931 | 12 | 25 | 0.0 | 0.0 | 0.00 | 0.00 | 0.00 | 59 | 1027.2 |
| 20260906011918 | 12 | 25 | 0.0 | 0.0 | 0.00 | 0.00 | 0.00 | 59 | 1027.3 |
| 20260906010902 | 12 | 25 | 0.0 | 0.0 | 0.00 | 0.03 | 0.00 | 59 | 1027.5 |
| 20260906005849 | 13 | 25 | 0.0 | 0.0 | 0.00 | 0.03 | 0.00 | 59 | 1027.2 |
| 20260906004833 | 13 | 25 | 0.0 | 0.0 | 0.00 | 0.08 | 0.00 | 58 | 1027.4 |
| 20260906003802 | 13 | 25 | 0.0 | 0.0 | 0.00 | 0.08 | 0.00 | 58 | 1027.3 |
| 20260906002745 | 13 | 25 | 0.0 | 0.0 | 0.00 | 0.08 | 0.00 | 57 | 1027.3 |
| 20260906001808 | 13 | 25 | 0.0 | 0.0 | 0.00 | 0.08 | 0.00 | 56 | 1027.4 |
| 20260906000754 | 13 | 25 | 0.0 | 0.0 | 0.00 | 0.08 | 0.00 | 56 | 1027.3 |
| 20260905235814 | 14 | 25 | 0.0 | 0.0 | 0.00 | 0.08 | 0.00 | 56 | 1027.1 |
| 20260905234804 | 14 | 25 | 0.0 | 0.0 | 0.00 | 0.08 | 0.00 | 55 | 1027.0 |
| 20260905233744 | 14 | 25 | 0.0 | 0.0 | 0.00 | 0.08 | 0.00 | 54 | 1026.8 |
| 20260905232730 | 15 | 25 | 0.0 | 0.0 | 0.00 | 0.08 | 0.00 | 53 | 1026.7 |
| 20260905231749 | 15 | 25 | 0.0 | 0.0 | 0.00 | 0.08 | 0.00 | 53 | 1026.6 |
| 20260905230750 | 15 | 25 | 0.0 | 0.0 | 0.00 | 0.08 | 0.00 | 53 | 1026.7 |
| 20260905222512 | 16 | 25 | 0.0 | 0.0 | 0.00 | 0.08 | 0.00 | 48 | 1026.3 |
| 20260905220309 | 16 | 25 | 0.0 | 0.0 | 0.00 | 0.08 | 0.00 | 47 | 1026.0 |
| 20260905215253 | 16 | 25 | 0.0 | 0.0 | 0.00 | 0.08 | 0.08 | 47 | 1026.1 |
| 20260905214231 | 16 | 25 | 0.0 | 0.0 | 0.00 | 0.08 | 0.08 | 47 | 1026.0 |
| 20260905213220 | 16 | 25 | 0.0 | 0.0 | 0.00 | 0.08 | 0.08 | 47 | 1026.0 |
| 20260905211120 | 16 | 25 | 0.0 | 0.0 | 0.00 | 0.08 | 0.08 | 46 | 1025.8 |
| 20260905205007 | 17 | 25 | 0.0 | 0.0 | 0.00 | 0.08 | 0.08 | 45 | 1025.7 |
| 20260905203958 | 17 | 25 | 0.0 | 0.0 | 0.00 | 0.08 | 0.08 | 44 | 1025.7 |
| 20260905202957 | 17 | 25 | 0.0 | 0.0 | 0.00 | 0.08 | 0.08 | 42 | 1025.6 |
| 20260905202001 | 18 | 25 | 0.0 | 0.0 | 0.00 | 0.08 | 0.08 | 41 | 1025.5 |
| 20260905200934 | 18 | 25 | 0.0 | 0.0 | 0.00 | 0.08 | 0.08 | 40 | 1025.4 |
| 20260905195959 | 18 | 25 | 0.0 | 0.0 | 0.00 | 0.08 | 0.08 | 39 | 1025.3 |
| 20260905195001 | 18 | 25 | 0.0 | 0.0 | 0.00 | 0.08 | 0.08 | 38 | 1025.3 |
| 20260905194009 | 19 | 25 | 0.0 | 0.0 | 0.00 | 0.08 | 0.08 | 37 | 1025.1 |
| 20260905192945 | 20 | 25 | 0.0 | 0.0 | 0.00 | 0.08 | 0.08 | 35 | 1025.1 |
| 20260905191935 | 20 | 25 | 0.0 | 0.0 | 0.00 | 0.08 | 0.08 | 34 | 1025.0 |
| 20260905185900 | 21 | 272 | 0.0 | 0.0 | 0.00 | 0.08 | 0.08 | 33 | 1024.6 |
| 20260905183730 | 22 | 272 | 0.0 | 0.0 | 0.00 | 0.08 | 0.08 | 29 | 1024.2 |
| 20260905182707 | 22 | 272 | 0.0 | 0.0 | 0.00 | 0.08 | 0.08 | 29 | 1024.1 |
| 20260905181656 | 22 | 272 | 0.0 | 0.0 | 0.00 | 0.08 | 0.08 | 27 | 1024.0 |
| 20260905180636 | 22 | 272 | 0.0 | 0.0 | 0.00 | 0.08 | 0.08 | 27 | 1024.0 |
| 20260905175648 | 23 | 272 | 0.0 | 3.2 | 0.00 | 0.08 | 0.08 | 25 | 1023.7 |
| 20260905174649 | 23 | 308 | 0.0 | 9.7 | 0.00 | 0.08 | 0.08 | 24 | 1023.6 |
| 20260905173628 | 24 | 287 | 1.6 | 9.7 | 0.00 | 0.08 | 0.08 | 21 | 1023.4 |
| 20260905172608 | 24 | 274 | 1.6 | 9.7 | 0.00 | 0.08 | 0.08 | 21 | 1023.4 |
| 20260905170447 | 25 | 288 | 0.0 | 8.0 | 0.00 | 0.08 | 0.08 | 21 | 1023.2 |
| 20260905165432 | 25 | 284 | 1.6 | 22.5 | 0.00 | 0.08 | 0.08 | 19 | 1023.1 |
| 20260905164408 | 25 | 264 | 4.8 | 22.5 | 0.00 | 0.08 | 0.08 | 19 | 1023.0 |
| 20260905163410 | 25 | 285 | 4.8 | 17.7 | 0.00 | 0.08 | 0.08 | 19 | 1023.0 |
| 20260905162431 | 26 | 274 | 4.8 | 17.7 | 0.00 | 0.08 | 0.08 | 19 | 1022.8 |
| 20260905161431 | 26 | 261 | 3.2 | 11.3 | 0.00 | 0.08 | 0.08 | 20 | 1022.7 |
| 20260905160454 | 26 | 280 | 1.6 | 12.9 | 0.00 | 0.08 | 0.08 | 20 | 1022.6 |
| 20260905155452 | 26 | 315 | 1.6 | 12.9 | 0.00 | 0.08 | 0.08 | 19 | 1022.5 |
| 20260905154423 | 26 | 282 | 3.2 | 17.7 | 0.00 | 0.08 | 0.08 | 20 | 1022.5 |
| 20260905152256 | 26 | 302 | 3.2 | 17.7 | 0.00 | 0.08 | 0.08 | 19 | 1022.5 |
| 20260905151244 | 26 | 269 | 3.2 | 30.6 | 0.00 | 0.08 | 0.08 | 18 | 1022.5 |
| 20260905150227 | 27 | 276 | 6.4 | 30.6 | 0.00 | 0.08 | 0.08 | 19 | 1022.5 |
| 20260905145226 | 26 | 256 | 4.8 | 16.1 | 0.00 | 0.08 | 0.08 | 19 | 1022.4 |
| 20260905144210 | 26 | 268 | 4.8 | 24.1 | 0.00 | 0.08 | 0.08 | 19 | 1022.3 |
| 20260905143136 | 26 | 219 | 4.8 | 24.1 | 0.00 | 0.08 | 0.08 | 19 | 1022.3 |
| 20260905142106 | 27 | 273 | 4.8 | 22.5 | 0.00 | 0.08 | 0.08 | 18 | 1022.3 |
| 20260905140014 | 27 | 285 | 3.2 | 16.1 | 0.00 | 0.08 | 0.08 | 21 | 1022.3 |
| 20260905135005 | 27 | 267 | 4.8 | 27.4 | 0.00 | 0.08 | 0.08 | 20 | 1022.3 |
| 20260905133938 | 27 | 275 | 3.2 | 27.4 | 0.00 | 0.08 | 0.08 | 18 | 1022.3 |
| 20260905132934 | 27 | 300 | 4.8 | 24.1 | 0.00 | 0.08 | 0.08 | 20 | 1022.3 |
| 20260905131902 | 27 | 312 | 4.8 | 22.5 | 0.00 | 0.08 | 0.08 | 22 | 1022.4 |
| 20260905130830 | 27 | 254 | 4.8 | 22.5 | 0.00 | 0.08 | 0.08 | 22 | 1022.4 |
| 20260905125839 | 27 | 237 | 4.8 | 20.9 | 0.00 | 0.08 | 0.08 | 22 | 1022.5 |
| 20260905124807 | 26 | 274 | 3.2 | 19.3 | 0.00 | 0.08 | 0.08 | 25 | 1022.4 |
| 20260905122657 | 26 | 281 | 4.8 | 20.9 | 0.00 | 0.08 | 0.08 | 24 | 1022.4 |
| 20260905121649 | 26 | 271 | 1.6 | 17.7 | 0.00 | 0.08 | 0.08 | 26 | 1022.6 |
| 20260905120647 | 26 | 270 | 3.2 | 19.3 | 0.00 | 0.08 | 0.08 | 29 | 1022.7 |
| 20260905115614 | 26 | 265 | 4.8 | 19.3 | 0.00 | 0.08 | 0.08 | 30 | 1022.6 |
| 20260905113537 | 26 | 205 | 3.2 | 16.1 | 0.00 | 0.08 | 0.08 | 32 | 1022.6 |
| 20260905112516 | 26 | 309 | 3.2 | 11.3 | 0.00 | 0.08 | 0.08 | 34 | 1022.7 |
| 20260905111451 | 25 | 239 | 3.2 | 9.7 | 0.00 | 0.08 | 0.08 | 35 | 1022.8 |
| 20260905105358 | 25 | 290 | 4.8 | 20.9 | 0.00 | 0.08 | 0.08 | 36 | 1022.8 |
| 20260905104342 | 24 | 271 | 3.2 | 16.1 | 0.00 | 0.08 | 0.08 | 39 | 1022.8 |
| 20260905103358 | 23 | 315 | 3.2 | 16.1 | 0.00 | 0.08 | 0.08 | 40 | 1022.8 |
| 20260905101218 | 23 | 266 | 4.8 | 20.9 | 0.00 | 0.08 | 0.08 | 40 | 1022.9 |
| 20260905100200 | 23 | 267 | 1.6 | 20.9 | 0.00 | 0.08 | 0.08 | 40 | 1022.9 |
| 20260905094009 | 22 | 348 | 1.6 | 14.5 | 0.00 | 0.08 | 0.08 | 45 | 1022.8 |
| 20260905091908 | 22 | 263 | 1.6 | 12.9 | 0.00 | 0.08 | 0.08 | 47 | 1022.8 |
| 20260905090901 | 22 | 279 | 1.6 | 11.3 | 0.00 | 0.08 | 0.08 | 47 | 1022.8 |
| 20260905085907 | 22 | 324 | 0.0 | 6.4 | 0.00 | 0.08 | 0.08 | 47 | 1022.9 |